www.pogodaiklimat.ru

Погода и климат >> Архив погоды >> Пакистан >> Dir


ПОГОДА в Dir

  • Прогноз погоды в Dir
  • Монитор погоды в Dir
  • Климат города

АРХИВ ПОГОДЫ в Dir

Время (UTC), дата Ветер
(напр.,м/с)
 
Видим.   Явления Облачность Т
(С)
Тd
(С)
f
(%)
Тe
(С)
Тes
(С)
Комфортность P
(гПа)
Po
(гПа)
Тmin
(С)
Tmax
(С)
R
(мм)
R24
(мм)
S
(см)
15 11.09 штиль 0 4000 м 6/3 300 м
[Sc As op]
+26.6 +19.1 63 +32 +32 очень
душно
891.0 1000.0
18 11.09 штиль 0 4000 м 6/3 300 м
[Sc As op]
+25.0 +19.0 69 +30 +30 душно 892.0 1000.0
21 11.09 штиль 0 4000 м 6/3 300 м
[Sc As op]
+23.3 +19.8 81 +30 +30 очень
душно
846.2 1000.0
00 12.09 штиль 0 4000 м 6/3 300 м
[Sc As op]
+21.1 +17.9 82 +25 +25 комфорт 800.0 1000.0
03 12.09 штиль 0 10 км 4/4 300 м
[Sc]
+19.7 +15.5 77 +22 +24 комфорт 800.0 924.8 +17.1
06 12.09 ЮЗ 1 10 км ясно +28.3 +15.2 45 +31 +48 душно 822.5 849.0
09 12.09 ЮЗ 1 10 км ясно +32.8 +16.3 37 +36 +50 очень
душно
847.2 847.0
12 12.09 ЮЗ 1 10 км ясно +31.7 +16.2 39 +35 +37 очень
душно
854.0 923.2 +34.1
15 12.09 ЮЗ 1 4000 м ясно +25.3 +17.9 64 +30 +30 душно 858.0 1000.0
18 12.09 ЮЗ 1 4000 м ясно +23.3 +17.3 69 +29 +29 душно 862.0 1000.0
21 12.09 ЮЗ 1 4000 м ясно +21.1 +16.3 74 +24 +24 комфорт 865.0 923.5
00 13.09 штиль 0 4000 м 4/4 1050 м
[Sc]
+19.2 +15.8 81 +21 +21 комфорт 847.2 847.0
03 13.09 штиль 0 10 км ясно +18.2 +14.7 80 +18 +23 847.3 847.0 +16.0
06 13.09 ЮЗ 1 10 км ясно +31.1 +10.0 27 +31 +48 жарко 851.7 923.5
09 13.09 С 1 10 км ясно +33.9 +7.2 19 +32 +48 жарко 854.0 1000.0
12 13.09 З 1 10 км ясно +31.1 +8.8 25 +30 +32 жарко 848.0 1000.0 +35.1
15 13.09 ЮЗ 1 10 км ясно +25.0 +16.6 60 +29 +29 душно 852.0 1000.0
18 13.09 ЮЗ 1 10 км ясно +22.2 +11.8 52 +25 +25 комфорт 855.0 1000.0
21 13.09 ЮЗ 1 10 км ясно +19.4 +11.8 61 +22 +22 комфорт 859.0 1000.0
00 14.09 штиль 0 10 км ясно +17.8 +12.0 69 +18 +18 862.0 1000.0
03 14.09 штиль 0 10 км 4/4 300 м
[Sc]
+19.4 +15.5 78 +21 +24 комфорт 874.0 1000.0 +17.1
06 14.09 ЮЗ 1 10 км 9/4 300 м
[Sc As op]
+24.4 +15.9 59 +28 +31 душно 886.0 1000.0
09 14.09 Ю 1 10 км гроза, ливневой дождь 9/3
[Cb cap As op]
+23.9 +14.3 55 +26 +30 жарко 894.0 1000.0 2
12 14.09 ЮЗ 1 10 км гроза, ливневой дождь 10/3
[Cb cap As op]
+22.5 +17.1 72 +27 +28 душно 892.0 1000.0 +25.1 3
15 14.09 Ю 1 4000 м гроза, ливневой дождь 10/4
[Cb cap As op]
+16.7 +14.0 84 +18 +18 850.5 1000.0 4
18 14.09 ЮЗ 1 4000 м в посл. час гроза {дождь} 8/4 300 м
[Sc As op]
+15.6 +13.8 89 +17 +17 812.0 1000.0 1
21 14.09 ЮЗ 1 4000 м 8/4 300 м
[Sc As op]
+13.9 +13.1 95 +15 +15 819.0 1000.0
00 15.09 штиль 0 4000 м гроза, ливневой дождь 10/4
[Cb cap As op]
+14.3 +12.8 91 +14 +14 823.0 1000.0 1
03 15.09 штиль 0 10 км в посл. час гроза {дождь} 6/3 300 м
[Sc As op]
+14.8 +13.3 91 +14 +16 828.0 1000.0 +12.5 1
06 15.09 Ю 1 10 км 8/4 300 м
[Sc As op]
+18.1 +13.8 76 +20 +25 833.0 1000.0
09 15.09 З 1 10 км 8/4 300 м
[Sc As op]
+24.0 +10.2 42 +25 +29 комфорт 822.0 1000.0
12 15.09 ЮЗ 1 10 км в посл. час гроза {дождь} 9/4 300 м
[Sc As op]
+17.9 +12.0 68 +20 +20 824.0 1000.0 +25.1 1
15 15.09 ЮЗ 1 4000 м 4/4 300 м
[Sc]
+15.6 +11.1 75 +17 +17 827.0 1000.0
18 15.09 штиль 0 4000 м 4/4 300 м
[Sc]
+13.3 +10.8 85 +13 +13 828.0 1000.0
21 15.09 штиль 0 4000 м 4/4 300 м
[Sc]
+11.7 +9.6 87 +11 +11 831.0 1000.0
00 16.09 штиль 0 4000 м ясно +9.3 +8.5 95 +8 +8 831.3 1000.0
03 16.09 штиль 0 10 км ясно +11.1 +9.1 87 +10 +15 830.0 1000.0 +8.1
06 16.09 З 1 10 км ясно +22.7 +9.2 42 +24 +41 комфорт 828.0 1000.0
09 16.09 Ю 1 10 км 4/4 300 м
[Cu med, cong]
+27.2 +9.4 33 +28 +37 жарко 810.0 1000.0
12 16.09 Ю 1 10 км 5/5 300 м
[Sc]
+25.6 +10.0 37 +26 +27 жарко 807.0 1000.0 +28.1
15 16.09 ЮЗ 1 4000 м 5/5 300 м
[Sc]
+19.0 +12.2 65 +22 +22 комфорт 808.0 1000.0
18 16.09 ЮЗ 1 4000 м 5/5 300 м
[Sc]
+16.4 +11.2 71 +18 +18 809.0 1000.0
21 16.09 ЮЗ 1 4000 м 5/5 300 м
[Sc]
+12.8 +10.3 85 +14 +14 813.0 1000.0
00 17.09 штиль 0 4000 м 4/4 300 м
[Sc]
+10.0 +8.1 88 +9 +9 818.0 1000.0
03 17.09 штиль 0 10 км ясно +12.5 +9.7 83 +12 +16 819.5 1000.0 +9.0
06 17.09 З 1 10 км ясно +24.3 +9.7 40 +25 +42 комфорт 816.0 1000.0
09 17.09 ЮЗ 1 10 км 3/3 300 м
[Cu med, cong]
+29.3 +7.5 25 +28 +39 жарко 806.0 1000.0
12 17.09 Ю 1 10 км ясно +27.6 +5.4 24 +27 +28 жарко 849.8 850.0 +31.0
15 17.09 штиль 0 4000 м ясно +19.6 +9.7 53 +21 +21 комфорт 833.7 899.9
18 17.09 штиль 0 4000 м ясно +13.9 +10.4 79 +14 +14 803.0 1000.0
21 17.09 штиль 0 4000 м ясно +13.9 +10.4 79 +14 +14 803.0 1000.0
00 18.09 штиль 0 4000 м ясно +10.8 +9.1 89 +10 +10 807.0 1000.0
03 18.09 штиль 0 10 км ясно +11.9 +8.1 78 +11 +16 808.0 1000.0 +9.1
06 18.09 З 1 10 км ясно +26.7 +7.9 30 +27 +43 жарко 810.0 1000.0
09 18.09 ЮЗ 1 10 км ясно +31.1 +7.4 23 +30 +45 жарко 898.0 1000.0
12 18.09 ЮЗ 1 10 км ясно +28.8 +8.0 27 +28 +30 жарко 849.1 849.0 +33.0

 

Местоположение метеостанции Dir (Пакистан): широта 35.20 долгота 71.85 высота над уровнем моря 1370 м.

В архиве по умолчанию представлена погода в Dir за последнюю неделю. Архивные данные за месяц целиком и за предыдущие месяцы, начиная с января 2011 года, Вы можете получить, выбрав интересующий диапазон дат из раскрывающегося списка и нажав кнопку "Ввод!".


*Определитесь, кто Вы:
робот инопланетянин человек

Внимание! Время в таблицах - всемирное. Для получения местного времени необходимо прибавить поправку, которая в Dir равна 5 ч.

Смотрите также архив погоды в соседних городах и на ближайших метеорологических станциях:

Погода в Drosh (Пакистан) (42 км)
Погода в Saidu Sharif (Пакистан) (69 км)
Погода в Chitral (Пакистан) (72 км)
Погода в Risalpur (Пакистан) (125 км)
Погода в Peshawar (Пакистан) (134 км)
Погода в Jalalabad (Афганистан) (152 км)
Погода в Balakor (Пакистан) (165 км)
Погода в Kakul (Пакистан) (171 км)
Погода в Искачеме (Таджикистан) (171 км)
Погода в Kohat (Пакистан) (185 км)

Пояснения к столбцам:

Ветер - указаны скорость ветра в м/с - средняя за 10 мин, порывы в срок и между сроками (в фигурных скобках) и направление, откуда дует ветер: С - северный, СВ - северо-восточный, В - восточный, ЮВ - юго-восточный, Ю - южный, ЮЗ - юго-западный, З - западный, СЗ - северо-западный.
Видимость - горизонтальная дальность видимости в метрах или километрах. При видимости от 1 до 10 км при отсутствии осадков обычно наблюдается дымка, при ухудшении видимости до 1 км и менее - туман. В сухую погоду видимость может ухудшаться дымом, пылью или мглою.
Явления - указаны атмосферные явления, наблюдавшиеся в срок или в последний час перед сроком; фигурными скобками обозначены явления, наблюдавшиеся между сроками (за 1-3 часа до срока); квадратными скобками обозначены град или гололедные отложения с указанием их диаметра в мм.
Облачность - указаны через наклонную черту общая и нижняя облачность в баллах и высота нижней границы облаков в метрах; квадратными скобками обозначены формы облаков: Ci - перистые, Cs - перисто-слоистые, Cc - перисто-кучевые, Ac - высококучевые, As - высокослоистые, Sc - слоисто-кучевые, Ns - слоисто-дождевые, Cu - кучевые, Cb - кучево-дождевые. Подробнее классификацию облаков см. в Атласе облаков (PDF).
T - Температура воздуха - температура, измеренная на высоте 2 м над землей.
Td - Температура точки росы - температура, при понижении до которой содержащийся в воздухе водяной пар достигнет насыщения.
f - Относительная влажность воздуха - влажноcть воздуха, измеренная на высоте 2 м над землей.
Te - Эффективная температура - температура, которую ощущает одетый по сезону человек в тени. Характеристика душности погоды. При расчете учитывается влияние влажности воздуха и скорости ветра на теплоощущения человека.
Tes - Эффективная температура на солнце - температура, которую ощущает человек, с поправкой на солнечный нагрев. Характеристика знойности погоды. Зависит от высоты солнца над горизонтом, облачности и скорости ветра. Ночью, в пасмурную погоду, а также при ветре 12 м/с и более поправка равна нулю.
P - Атмосферное давление - приведенное к уровню моря атмосферное давление.
Po - Атмосферное давление - измеренное на уровне метеостанции атмосферное давление.
Tmin - Минимальная температура - минимум температуры воздуха на высоте 2 м над землей.
Tmax - Максимальная температура - максимум температуры воздуха на высоте 2 м над землей.
R - Количество осадков - Количество выпавших осадков за период времени, мм. При наведении курсора мыши на число - период времени, за который выпало указанное количество осадков.
R24 - Количество осадков - Количество выпавших осадков за 24 часа, мм.
S - Снежный покров - Высота снежного покрова, см. При наведении курсора мыши на число - состояние снежного покрова и степень покрытия местности в баллах.